Regional Weather Roundup
Issued by NWS

Home | Current Version | Previous Version | Graphics & Text | Print | Product List | Glossary On
Versions: 1 2 3 4 5 6 7 8 9 10 11 12 13 14 15 16 17 18 19 20 21 22 23 24 25 26 27 28 29 30 31 32 33 34 35 36 37 38 39 40 41 42 43 44 45 46 47 48 49 50
000
ASUS43 KMPX 021510
RWRMN
WEATHER ROUNDUP FOR MINNESOTA
NATIONAL WEATHER SERVICE TWIN CITIES/CHANHASSEN MN
900 AM CST FRI DEC 02 2016


NOTE: "FAIR" INDICATES FEW OR NO CLOUDS BELOW 12,000 FEET WITH NO
SIGNIFICANT WEATHER AND/OR OBSTRUCTIONS TO VISIBILITY. N/A MEANS
CURRENT SKY AND/OR WEATHER CONDITIONS ARE NOT AVAILABLE.

MNZ060>063-068>070-021600-
   Twin Cities Metro

CITY           SKY/WX    TMP DP  RH WIND       PRES   REMARKS
TWIN CITIES    CLOUDY    32  21  64 NW8       30.20R WCI  25
ST PAUL        CLOUDY    32  23  69 NW10      30.21R WCI  24
CRYSTAL        CLOUDY    31  21  66 W7        30.19R WCI  24
BLAINE         CLOUDY    34  25  69 NW9       30.19R WCI  26
LAKEVILLE      CLOUDY    28  21  74 NW8       30.19R WCI  20
EDEN PRAIRIE   CLOUDY    32  22  66 W7        30.19R WCI  26
SOUTH ST PAUL  CLOUDY    32  22  67 W6        30.20R WCI  26
LAKE ELMO      CLOUDY    32  27  80 W5        30.19S WCI  27
$$
MNZ001>005-007-008-013>017-022>024-027-028-021600-
   Northwest Minnesota

CITY           SKY/WX    TMP DP  RH WIND       PRES   REMARKS
BEMIDJI        CLOUDY    22  19  91 W8        30.18S WCI  12
HALLOCK        CLOUDY    28  25  86 NW6       30.23R WCI  22
ROSEAU         CLOUDY    27  21  80 N6        30.20R WCI  20
WARROAD        CLOUDY    23  19  86 NW6       30.20S WCI  16
THIEF RVR FALL CLOUDY    25  20  81 NW6       30.22R WCI  18
CROOKSTON      CLOUDY    27  21  80 N6        30.24S WCI  20
FOSSTON        CLOUDY    23  18  80 NW5       30.21R WCI  17
DETROIT LAKES  CLOUDY    27  23  86 NW7       30.21R WCI  19
MOORHEAD       CLOUDY    27  21  80 N9        30.25R WCI  17
PARK RAPIDS    CLOUDY    24  17  74 N8        30.19R WCI  15
$$
MNZ006-009>011-018-025>026-021600-
   North Central Minnesota

CITY           SKY/WX    TMP DP  RH WIND       PRES   REMARKS
BAUDETTE       CLOUDY    21  19  92 W7        30.19R WCI  12
FLAG ISLAND    CLOUDY    21  19  93 W8        30.19S WCI  12
INTL FALLS     CLOUDY    25  21  85 NW6       30.17R WCI  18
WASKISH        CLOUDY    21  21 100 W5        30.20R WCI  15
BIG FORK       CLOUDY    25  21  86 CALM      30.17R
LONGVILLE      CLOUDY    25  21  86 W6        30.19R WCI  18
GRAND RAPIDS   CLOUDY    26  23  88 NW10      30.18R WCI  16
CRANE LAKE     CLOUDY    21  21 100 NW3       30.18R
ORR            CLOUDY    25  19  80 CALM      30.12S
COOK           CLOUDY    25  21  86 W3        30.16R
$$
MNZ012-019>021-037-021600-
   Northeast Minnesota

CITY           SKY/WX    TMP DP  RH WIND       PRES   REMARKS
DULUTH         CLOUDY    27  22  81 NW7       30.13R WCI  19
ELY            CLOUDY    21  21 100 NW5       30.14R WCI  15
HIBBING        CLOUDY    24  21  88 N8        30.15R WCI  15
EVELETH        CLOUDY    25  21  84 NW6       30.15R WCI  18
DULUTH HARBOR  CLOUDY    30  25  80 NW10      30.18R WCI  21
TWO HARBORS    CLOUDY    28  23  80 NW6       30.12R WCI  22
SILVER BAY     CLOUDY    27  23  86 N3        30.12R
GRAND MARAIS     N/A     31  23  72 NW15G28   30.09  WCI  20
G MARAIS ARPRT CLOUDY    23  18  80 NW6       30.07R WCI  16
$$
MNZ029>031-032-039>041-046>048-054>057-064-021600-
   West Central Minnesota

CITY           SKY/WX    TMP DP  RH WIND       PRES   REMARKS
FERGUS FALLS   CLOUDY    27  19  74 N10       30.27R WCI  17
WHEATON        CLOUDY   N/A N/A N/A NW10      30.26R
MORRIS         CLOUDY    28  21  74 N9        30.22R WCI  20
ALEXANDRIA     CLOUDY    25  21  85 NW9       30.21R WCI  15
ELBOW LAKE     CLOUDY    26  21  83 N9        30.22R WCI  16
WADENA         CLOUDY    25  19  80 W7        30.20R WCI  17
GLENWOOD       CLOUDY    27  21  80 W9        30.20R WCI  17
APPLETON       CLOUDY    28  21  74 N7        30.23R WCI  21
BENSON         CLOUDY    28  21  74 N7        30.23R WCI  21
ORTONVILLE     CLOUDY    28  21  74 CALM      30.23R
MADISON        CLOUDY    30  25  80 N9        30.23R WCI  22
WILLMAR        CLOUDY    28  23  80 N13       30.23R WCI  18
$$
MNZ033>034-036-042>043-049>051-058-059-021600-
   Central Minnesota

CITY           SKY/WX    TMP DP  RH WIND       PRES   REMARKS
ST CLOUD       CLOUDY    29  23  78 NW9       30.19R WCI  20
PAYNESVILLE    CLOUDY    28  23  80 NW8       30.21R WCI  20
AITKIN         CLOUDY    28  21  74 CALM      30.16R
PINE RIVER     CLOUDY    25  21  86 NW6       30.22R WCI  18
BRAINERD       CLOUDY    25  20  81 NW8       30.19R WCI  16
STAPLES        CLOUDY    25  21  86 NW10      30.20R WCI  15
LONG PRAIRIE   CLOUDY    27  21  80 W7        30.20R WCI  19
LITTLE FALLS   CLOUDY    28  21  74 NW5       30.20R WCI  23
LITCHFIELD     CLOUDY    30  23  74 NW5       30.21R WCI  25
BUFFALO        CLOUDY    30  23  74 W8        30.21R WCI  23
MAPLE LAKE     CLOUDY    31  25  79 W6        30.21R WCI  25
$$
MNZ037-044-045-052-053-021600-
   East Central Minnesota

CITY           SKY/WX    TMP DP  RH WIND       PRES   REMARKS
PRINCETON      CLOUDY    30  25  80 NW7       30.19R WCI  23
MORA           CLOUDY    30  23  74 N3        30.20R
CAMBRIDGE      CLOUDY    32  21  64 NW8       30.17R WCI  25
RUSH CITY      CLOUDY    30  23  74 VRB6      30.19R WCI  24
MOOSE LAKE     CLOUDY    30  23  74 NW5       30.15R WCI  25
HINCKLEY       CLOUDY    30  27  86 NW3       30.17R
CLOQUET        CLOUDY    27  21  80 NW7G16    30.15R WCI  19
MCGREGOR       CLOUDY    28  23  80 NW9       30.17R WCI  20
$$
MNZ071>073-080-081-089-090-097-098-021600-
   Southwest Minnesota

CITY           SKY/WX    TMP DP  RH WIND       PRES   REMARKS
MONTEVIDEO     CLOUDY    28  27  93 N8        30.24R WCI  20
GRANITE FALLS  CLOUDY    30  24  77 NW10      30.24R WCI  21
CANBY          CLOUDY    30  25  83 CALM      30.24R
MARSHALL       CLOUDY    28  22  78 NW13      30.23R WCI  17
REDWOOD FALLS  CLOUDY    30  22  72 N6        30.22R WCI  24
OLIVIA         CLOUDY    30  23  74 N7        30.21R WCI  23
PIPESTONE      CLOUDY    28  25  86 N3        30.20R
WINDOM         CLOUDY    30  27  86 CALM      30.21R
WORTHINGTON    CLOUDY    29  25  85 NW9       30.21R WCI  20
JACKSON        CLOUDY    30  27  86 NW10      30.21R WCI  21
TRACY          CLOUDY    30  27  89 NW9       30.22R WCI  22
SLAYTON        CLOUDY    27  24  89 NW8       30.22R WCI  19
$$
MNZ065>067-074>077-082>085-091>093-021600-
   South Central Minnesota

CITY           SKY/WX    TMP DP  RH WIND       PRES   REMARKS
MANKATO        CLOUDY    30  24  78 NW10      30.21R WCI  21
NEW ULM        CLOUDY    28  21  74 NW10      30.21R WCI  19
ST JAMES       CLOUDY    30  25  80 NW8       30.23R WCI  23
FAIRMONT       CLOUDY    31  26  82 N8        30.21R WCI  23
GLENCOE        CLOUDY    31  26  79 NW6       30.20R WCI  26
FARIBAULT      CLOUDY    30  23  74 W7        30.20R WCI  23
OWATONNA       CLOUDY    30  21  69 NW14      30.19R WCI  20
WASECA         CLOUDY    32  27  80 NW7       30.21R WCI  26
ALBERT LEA     CLOUDY    34  27  75 NW9       30.19R WCI  26
$$
MNZ078>079-086>088-094>096-021600-
   Southeast Minnesota

CITY           SKY/WX    TMP DP  RH WIND       PRES   REMARKS
ROCHESTER      CLOUDY    30  23  75 NW12      30.17R WCI  20
RED WING       CLOUDY    32  21  64 CALM      30.19R
STANTON        CLOUDY    32  23  70 NW7       30.18R WCI  26
DODGE CENTER   CLOUDY    28  23  80 NW9       30.18R WCI  20
WINONA         CLOUDY    34  27  75 N7        30.19R WCI  28
AUSTIN         CLOUDY    30  25  80 NW12      30.18R WCI  21
PRESTON        CLOUDY    30  23  76 N7        30.17R WCI  23
$$
ABBREVIATIONS USED IN REMARKS
   TC - TEMPERATURES IN CELSIUS
  WCI - WIND CHILL INDEX
   HX - HEAT INDEX
  VSB - VISIBILITY
$$



USA.gov is the U.S. government's official web portal to all federal, state and local government web resources and services.